Location: Pallagorio
(39.3000°N, 16.9000°E)
Time: 20:56:23
(UTC+00:00)

Cosmos 44 - Pass Details

Date: 24 January 2021
Orbit: 572 x 790 km, 65.1° (Epoch: 03 March)

Event Time Altitude Azimuth Distance (km) Brightness Sun altitude
Rises 16:38:34 0° 201° (SSW) 2,916 7.2 -7.1°
Reaches altitude 10° 16:40:47 10° 198° (SSW) 2,044 6.3 -7.5°
Maximum altitude 16:45:23 65° 117° (ESE) 751 3.3 -8.4°
Drops below altitude 10° 16:50:20 10° 37° (NE) 2,201 5.4 -9.3°
Enters shadow 16:51:22 - 35° (NE) 2,602 5.8 -9.5°
